Regional Weather Roundup
Issued by NWS

Home | Current Version | Previous Version | Text Only | Print | Product List | Glossary On
Versions: 1 2 3 4 5 6 7 8 9 10 11 12 13 14 15 16 17 18 19 20 21 22 23 24 25 26 27 28 29 30 31 32 33 34 35 36 37 38 39 40 41 42 43 44 45 46 47 48 49 50
000
ASUS45 KBOI 280910
RWRID
WEATHER ROUNDUP FOR IDAHO
NATIONAL WEATHER SERVICE BOISE ID
300 AM MDT THU AUG 28 2014

NOTE: "FAIR" INDICATES FEW OR NO CLOUDS BELOW 12000 FEET
WITH NO SIGNIFICANT WEATHER AND/OR OBSTRUCTIONS TO VISIBILITY

IDZ012-014-281000-
SOUTHWEST IDAHO


CITY           SKY/WX    TMP DP  RH WIND       PRES   REMARKS
BOISE          CLEAR     71  41  33 SE10      30.03S
CALDWELL       CLEAR     61  39  44 E5        30.03S
MOUNTAIN HOME  CLEAR     59  39  46 E9        30.05F
$$

IDZ016-017-281000-
SOUTHCENTRAL IDAHO


CITY           SKY/WX    TMP DP  RH WIND       PRES   REMARKS
BURLEY         CLEAR     60  49  66 S12       30.14S
JEROME         CLEAR     60  49  66 E7        30.14R
TWIN FALLS     CLEAR     64  47  53 S13       30.13S
$$

IDZ019>023-281000-
SOUTHEAST IDAHO


CITY           SKY/WX    TMP DP  RH WIND       PRES   REMARKS
IDAHO FALLS    CLEAR     56  49  77 SW6       30.19R
POCATELLO      CLEAR     62  49  62 E3        30.17F
REXBURG        CLEAR     51  46  83 N5        30.20R
$$

IDZ006-010-011-018-031-032-281000-
CENTRAL IDAHO MOUNTAINS


CITY           SKY/WX    TMP DP  RH WIND       PRES   REMARKS
MCCALL         CLEAR     49  40  71 NE3       30.17F
HAILEY         CLEAR     55  45  67 NW12      30.24R
STANLEY          N/A     41  36  82 CALM      30.31S
SALMON         CLEAR     50  46  87 CALM      30.15S
CHALLIS        CLEAR     56  44  64 CALM      30.20S
$$

IDZ002-004-006-007-026-281000-
NORTHERN IDAHO


CITY           SKY/WX    TMP DP  RH WIND       PRES   REMARKS
LEWISTON       CLEAR     72  48  42 CALM      29.94R
LOWELL           N/A     58  53  84 N3        30.04R
COEUR D`ALENE  CLEAR     66  48  52 SE6       29.93F
MULLAN PASS    CLEAR     60  41  49 SW9       30.17S
$$


USA.gov is the U.S. government's official web portal to all federal, state and local government web resources and services.